Location: Riverside
(39.1734°N, 77.8561°W)
Time: 00:58:54
(UTC+00:00)

Envisat - Visible Passes

Search period start: 23 October 2019 00:00
Search period end: 02 November 2019 00:00
Orbit: 764 x 766 km, 98.1° (Epoch: 22 October)

Date Brightness Start Highest point End Pass type
(mag) Time Alt. Az. Time Alt. Az. Time Alt. Az.
23 Oct 5.9 00:37:35 10° SW 00:40:35 16° W 00:43:36 10° NW visible
23 Oct 4.6 23:58:55 10° SSW 00:03:32 35° W 00:08:11 10° NNW visible
24 Oct 3.1 23:21:36 10° S 23:26:41 82° WSW 23:31:47 10° NNW visible
25 Oct 3.3 22:45:13 10° SE 22:50:01 44° ENE 22:54:50 10° N visible
26 Oct 5.6 00:25:32 10° SW 00:29:13 20° W 00:32:55 10° NW visible
26 Oct 6.1 10:56:21 10° NE 10:59:32 17° E 11:02:43 10° SE visible
26 Oct 4.1 23:47:23 10° S 23:52:13 45° W 23:57:06 10° NNW visible
27 Oct 2.9 23:10:22 10° SSE 23:15:25 79° ENE 23:20:31 10° N visible
28 Oct 6.2 00:53:50 10° WSW 00:55:00 11° W 00:56:09 10° WNW visible
28 Oct 3.6 22:34:15 10° SE 22:38:49 35° ENE 22:43:24 10° N visible
29 Oct 5.2 00:13:41 10° SSW 00:17:52 25° W 00:22:03 10° NW visible
29 Oct 6.4 10:45:55 10° ENE 10:48:10 13° E 10:50:23 10° ESE visible
29 Oct 3.6 23:35:56 10° S 23:40:55 58° W 23:45:57 10° NNW visible
30 Oct 3.0 22:59:11 10° SSE 23:04:11 62° ENE 23:09:12 10° N visible
31 Oct 6.0 00:40:57 10° WSW 00:43:36 14° W 00:46:16 10° WNW visible
31 Oct 5.9 11:09:53 10° NE 11:13:54 23° E 11:17:55 10° SSE visible
01 Nov 4.8 00:02:00 10° SSW 00:06:31 32° W 00:11:04 10° NNW visible
01 Nov 3.2 23:24:35 10° S 23:29:39 75° W 23:34:44 10° NNW visible
